Tracking 32963 objects as of 21-Jan-2026
HD Live streaming from Space Station
objects crossing your sky now

METEOR 2-12 DEB

Track METEOR 2-12 DEB now!
10-day predictions


NORAD ID: 45518
Int'l Code: 1985-013D
Perigee: 866.3 km
Apogee: 905.4 km
Inclination: 82.5 °
Period: 102.5 minutes
Semi major axis: 7256 km
RCS: Unknown
Launch date: February 6, 1985
Source: Commonwealth of Independent States (former USSR) (CIS)
Launch site: PLESETSK MISSILE AND SPACE COMPLEX (PKMTR)

Note: This is SATELLITE DEBRIS
Your satellite tracking list
Your tracking list is empty




NASA's NSSDC Master Catalog

Two Line Element Set (TLE):
1 45518U 85013D   26020.31032076  .00005065  00000-0  31634-2 0  9997
2 45518  82.5239  31.0072 0026978 131.4594 228.8900 14.04370897100144
Source of the keplerian elements: AFSPC